Location: Rounton
(54.4000°N, 1.3500°W)
Time: 13:09:08
(UTC+01:00)

Vanguard 1 - Pass Details

Date: 28 February 2024
Orbit: 653 x 3825 km, 34.2° (Epoch: 22 April)

Event Time Altitude Azimuth Distance (km) Brightness Sun altitude
Rises 00:41:55 0° 271° (W) 6,908 14.3 -43.6°
Reaches altitude 10° 00:47:13 10° 260° (W) 6,269 14.0 -43.5°
Enters shadow 00:50:29 16° 253° (WSW) 5,961 13.8 -43.4°
